Vertical_Velocity
-1 -3 -4 -3 -2 2 -4 -2 -7 0 -1 -1 -3 -3 -0 -2 -2 0 -0 -2 -4 5 2 -1 3 4 9 -7 5 2 3 -3 2 5 3 3 1 -1 2 1 1 -1 -0
0 1 -2 5 2 -2 -4 7 2 -6 0 4 4 -2 0 0 4 4 -9 -13 -9 -3 -21 10 -12 -0 -8 -2 7 5 -1 0 6 9 4 -4 1 3 -2 1 2 0 3
1 3 -0 -3 -4 -2 2 2 -4 4 6 2 3 -1 -1 -1 -6 -16 5 1 3 -5 6 4 1 -12 6 2 1 3 -0 1 12 0 3 7 5 -4 4 1 3 3 3
0 -0 -3 -1 4 2 -0 2 3 3 1 1 -0 0 0 3 1 7 2 -2 -1 -4 17 4 -0 -4 4 8 11 0 2 6 5 6 3 3 4 4 4 7 -2 -3 -2
-1 -3 5 6 4 5 5 4 3 1 1 2 2 -0 3 3 1 -3 -1 8 6 3 -0 7 2 0 0 3 4 0 11 3 5 1 4 -1 -2 -4 -3 0 1 1 -1
-1 1 3 2 4 4 2 4 4 5 4 -0 0 2 -1 -2 -1 1 7 9 4 4 4 -3 0 10 5 13 13 11 10 3 -4 8 4 9 6 2 -4 -3 -0 1 -2
3 4 4 3 2 3 4 3 3 2 5 0 -0 1 1 -1 2 5 5 7 -0 2 3 3 4 -2 2 -1 -5 12 18 14 6 5 2 -1 -2 4 1 4 2 4 1
4 4 4 3 3 4 3 1 0 -1 0 0 1 5 5 0 2 2 2 -0 0 3 1 5 8 12 12 3 0 9 3 4 1 -2 1 -2 -3 1 -2 -1 1 -2 1
1 1 -0 -1 -0 -2 -1 -0 2 1 1 2 2 1 1 -1 0 -2 -3 -1 1 2 2 8 5 8 1 4 5 -2 1 4 -3 -10 -6 -1 -2 -1 2 -1 -2 -1 -5
-2 -2 1 1 1 -0 1 2 1 2 2 2 1 -0 -1 -2 -0 -2 0 1 5 5 5 1 -1 2 3 2 -2 -3 -9 -10 -5 -3 -1 0 -3 -3 0 1 -1 -3 -2
1 -2 -2 0 3 4 4 2 3 1 1 1 -0 -0 2 2 2 5 4 5 5 2 3 1 -0 -2 -4 -5 -2 -0 -2 -2 -2 -1 -2 -0 1 -4 -5 -0 -2 -1 1
3 1 1 1 1 0 1 -1 -0 0 0 2 3 3 2 3 4 2 2 -1 0 1 -0 -0 0 -0 -3 -3 -1 -1 2 2 2 0 0 -0 -2 1 1 1 3 2 -0
0 -2 1 3 0 1 1 1 1 3 3 1 0 0 0 0 -0 -1 -0 -0 -1 -2 -2 -2 -2 -2 -1 1 1 -1 1 1 1 1 -1 -1 -1 0 0 -1 -2 -5 -3
-2 -0 0 -0 1 -0 -1 0 -0 -1 -1 -1 -0 0 -0 -1 -1 -2 -3 -3 -4 -3 -2 -1 -1 -2 -3 -1 -0 -1 1 0 -0 0 0 1 -1 -1 -1 -2 -3 -0 -2
-3 -3 -3 -2 -1 -3 -3 -1 0 -2 0 -0 -1 -1 -0 -1 -1 -1 -1 -1 -1 -2 -3 -3 -3 -4 -1 1 0 0 1 1 1 1 1 1 -0 -0 1 1 -0 -1 -1
-5 -2 -3 0 -1 -1 1 -1 -0 -1 -1 -1 -1 -0 0 0 1 0 -0 0 -0 -1 -0 -1 1 -1 -1 -0 2 4 1 1 3 1 1 0 -1 -1 -0 -1 0 0 -0
-1 -0 -0 0 -1 -2 -2 -1 -2 1 0 -2 -2 -2 0 0 -0 -2 -2 -1 -3 1 -2 -2 -1 -1 1 1 2 2 1 5 -1 -0 -0 0 -0 -0 -1 0 1 1 -1
-1 0 -2 -1 -1 -2 0 0 0 0 -0 -1 -1 -0 -1 -1 -2 -1 -1 0 -2 -3 -2 -0 1 3 2 2 3 1 -1 -2 -1 -1 -1 -1 -1 1 -1 -0 -0 1 -1
-1 -3 -2 -1 -1 -1 -1 -1 -3 -2 -1 -1 1 2 -1 -2 -3 -2 -2 -3 -2 -2 -3 -3 -2 -1 -1 -1 -0 0 0 -1 -1 -1 -1 -0 -0 1 -0 -0 -0 -0 -1
-4 -2 -1 -1 -1 -2 -2 -1 -1 -1 -2 -2 -1 -1 0 1 -1 -3 -4 -2 -2 -2 -3 -3 -4 -4 -4 -3 -3 -1 -1 -1 -1 -1 -0 -1 1 2 -0 -0 0 1 -0
-3 -2 1 0 -1 -2 -2 -1 -1 -1 -0 1 -0 -1 -2 -3 -4 -3 -2 -2 -2 -1 -1 -2 -2 -2 -2 -2 -3 -2 -2 -2 -1 -1 -2 -1 -1 -1 2 1 1 2 1
-0 0 -0 -2 -3 -2 -0 -0 -1 -0 -0 -1 -3 -4 -3 -1 -1 -2 -3 -3 -3 -3 -3 -4 -3 -2 -2 -1 -1 -1 -1 -0 0 1 0 0 1 1 1 1 0 1 0
-2 -2 -3 -3 -0 0 -0 -1 -2 -3 -3 -4 -3 -0 -1 -3 -2 -2 -2 -3 -2 -2 -1 -1 -1 -1 -1 -1 0 1 -0 0 1 1 0 -0 -0 0 1 0 0 0 1
-2 -1 1 -0 -2 -3 -4 -3 -3 -3 -3 -1 -1 -3 -3 -2 -2 -1 -2 -2 -1 -0 -1 -1 -1 0 -0 -0 0 0 0 1 1 0 1 0 -0 1 1 0 0 0 -1
-1 -2 -3 -4 -4 -4 -2 -2 -2 -1 -1 -3 -2 -1 -1 -2 -2 -2 -1 -1 -1 -1 0 0 -0 -0 -1 0 0 0 0 1 1 1 -0 -0 0 1 1 0 1 -0 0
-3 -4 -3 -3 -3 -2 -0 -1 -2 -3 -2 -1 -1 -2 -3 -3 -1 -1 -1 -1 -0 0 -0 -1 -1 -1 -1 -0 -0 -0 -0 0 -1 1 -1 -0 0 1 1 -0 1 0 -1
Height
1451 1456 1461 1465 1469 1473 1476 1480 1483 1490 1493 1497 1499 1502 1505 1507 1508 1509 1508 1507 1506 1504 1501 1499 1500 1501 1499 1500 1500 1500 1503 1507 1506 1507 1508 1509 1509 1510 1513 1514 1515 1515 1515
1448 1452 1456 1459 1462 1465 1468 1473 1477 1482 1487 1489 1491 1494 1496 1497 1497 1498 1497 1495 1492 1491 1489 1485 1489 1488 1488 1489 1489 1489 1492 1494 1495 1496 1497 1499 1501 1502 1505 1506 1506 1506 1505
1442 1446 1449 1452 1455 1459 1463 1468 1472 1477 1479 1481 1484 1485 1487 1489 1489 1484 1487 1485 1482 1478 1475 1475 1477 1480 1479 1477 1476 1479 1480 1483 1483 1483 1487 1488 1491 1492 1495 1497 1498 1498 1496
1434 1439 1442 1445 1449 1453 1459 1463 1466 1469 1472 1474 1476 1477 1478 1478 1478 1475 1474 1474 1473 1472 1470 1469 1468 1469 1468 1466 1465 1468 1470 1471 1473 1475 1477 1480 1482 1483 1486 1487 1487 1487 1487
1426 1430 1433 1440 1443 1446 1449 1455 1459 1461 1463 1465 1467 1467 1468 1467 1467 1467 1466 1463 1464 1463 1461 1461 1460 1459 1457 1458 1458 1458 1459 1462 1464 1465 1469 1469 1471 1473 1475 1477 1477 1477 1475
1419 1423 1429 1434 1437 1440 1444 1447 1449 1452 1455 1456 1457 1457 1458 1458 1459 1459 1458 1456 1455 1454 1452 1451 1451 1450 1449 1449 1450 1452 1452 1452 1458 1461 1460 1461 1461 1463 1466 1468 1467 1467 1465
1415 1419 1424 1428 1432 1435 1438 1441 1443 1445 1448 1448 1450 1451 1451 1451 1451 1451 1450 1449 1447 1445 1444 1444 1444 1445 1443 1444 1449 1444 1447 1446 1449 1452 1453 1455 1458 1459 1460 1461 1459 1459 1458
1410 1414 1418 1422 1425 1429 1432 1434 1437 1439 1441 1443 1444 1444 1443 1443 1444 1444 1443 1441 1440 1440 1440 1440 1440 1439 1440 1440 1445 1445 1444 1444 1445 1449 1452 1452 1452 1453 1452 1453 1451 1451 1449
1407 1410 1414 1417 1420 1424 1427 1430 1432 1434 1436 1437 1437 1438 1438 1438 1438 1438 1438 1437 1437 1437 1436 1437 1438 1437 1436 1438 1439 1440 1443 1442 1441 1444 1447 1448 1447 1448 1446 1445 1445 1443 1440
1407 1411 1415 1417 1420 1422 1425 1427 1429 1430 1432 1433 1434 1434 1435 1435 1434 1435 1434 1435 1434 1435 1434 1434 1435 1436 1436 1434 1437 1437 1437 1439 1441 1441 1442 1441 1441 1439 1441 1438 1436 1434 1433
1408 1412 1416 1419 1422 1423 1425 1427 1428 1430 1431 1431 1432 1432 1433 1433 1433 1433 1433 1434 1435 1435 1435 1436 1437 1437 1437 1436 1435 1434 1434 1435 1435 1435 1434 1433 1431 1429 1430 1428 1426 1425 1424
1411 1413 1417 1419 1421 1423 1425 1426 1427 1428 1429 1430 1430 1431 1432 1433 1434 1434 1435 1436 1438 1438 1437 1437 1436 1436 1434 1433 1432 1431 1431 1430 1429 1428 1427 1426 1425 1424 1422 1420 1417 1415 1414
1414 1417 1419 1421 1422 1424 1425 1426 1427 1429 1430 1431 1433 1434 1435 1436 1436 1437 1437 1437 1437 1437 1437 1435 1434 1433 1431 1430 1428 1427 1426 1426 1425 1424 1422 1420 1419 1416 1413 1411 1408 1406 1405
1415 1418 1421 1423 1424 1425 1427 1428 1429 1430 1432 1434 1435 1436 1436 1437 1437 1437 1436 1435 1435 1434 1433 1432 1431 1429 1428 1427 1425 1424 1423 1421 1420 1418 1417 1414 1412 1409 1406 1403 1401 1399 1395
1415 1420 1424 1426 1426 1428 1430 1432 1432 1434 1436 1437 1438 1438 1438 1438 1437 1436 1435 1433 1432 1431 1430 1429 1428 1427 1426 1425 1423 1421 1419 1417 1415 1413 1411 1409 1406 1403 1401 1399 1396 1393 1390
1418 1422 1426 1428 1429 1432 1433 1434 1435 1437 1437 1438 1438 1439 1438 1438 1437 1435 1434 1432 1431 1429 1429 1428 1427 1425 1424 1422 1421 1418 1416 1414 1411 1409 1407 1405 1402 1399 1396 1394 1392 1389 1385
1422 1425 1428 1430 1431 1434 1435 1437 1437 1438 1438 1437 1437 1437 1438 1437 1435 1434 1433 1431 1429 1428 1427 1426 1425 1423 1422 1421 1418 1416 1413 1411 1406 1405 1402 1400 1397 1394 1391 1389 1386 1382 1379
1427 1428 1430 1431 1433 1435 1436 1437 1438 1438 1438 1438 1439 1439 1437 1435 1433 1433 1431 1429 1427 1425 1425 1424 1423 1421 1419 1417 1414 1411 1408 1405 1403 1400 1397 1394 1391 1389 1386 1384 1381 1378 1375
1429 1431 1432 1433 1434 1435 1436 1437 1438 1438 1438 1439 1439 1438 1435 1434 1432 1430 1427 1425 1424 1423 1421 1420 1419 1417 1414 1412 1409 1406 1402 1400 1397 1394 1392 1389 1386 1384 1381 1378 1376 1373 1370
1431 1433 1435 1435 1435 1435 1436 1437 1437 1437 1437 1437 1436 1433 1432 1431 1428 1425 1424 1422 1421 1420 1418 1417 1415 1413 1410 1408 1405 1402 1398 1395 1393 1390 1387 1384 1382 1379 1376 1374 1372 1369 1366
1433 1435 1436 1435 1434 1435 1436 1436 1435 1435 1436 1435 1432 1431 1431 1429 1427 1425 1423 1420 1419 1417 1415 1412 1410 1407 1405 1402 1399 1396 1393 1390 1387 1384 1381 1379 1376 1373 1372 1370 1367 1364 1361
1435 1435 1435 1434 1435 1436 1435 1435 1434 1434 1434 1433 1432 1431 1430 1428 1426 1424 1422 1420 1417 1415 1412 1409 1406 1403 1400 1397 1393 1390 1387 1384 1381 1378 1375 1373 1371 1370 1368 1365 1362 1359 1357
1435 1435 1435 1435 1435 1435 1435 1434 1434 1434 1433 1433 1432 1431 1429 1427 1425 1423 1420 1417 1414 1411 1408 1405 1402 1398 1395 1392 1389 1385 1382 1379 1376 1373 1371 1369 1367 1365 1363 1361 1358 1356 1353
1435 1435 1435 1435 1435 1436 1436 1435 1434 1434 1434 1433 1432 1430 1428 1425 1423 1420 1417 1415 1411 1408 1404 1401 1398 1394 1391 1388 1385 1382 1378 1376 1373 1370 1368 1365 1363 1361 1359 1356 1354 1351 1349
1436 1436 1436 1436 1437 1437 1437 1436 1436 1435 1434 1432 1430 1428 1426 1424 1422 1418 1415 1411 1407 1404 1400 1397 1393 1390 1387 1385 1382 1379 1376 1373 1370 1367 1364 1362 1359 1357 1355 1353 1351 1348 1346
1438 1439 1438 1438 1438 1438 1438 1438 1437 1435 1433 1431 1430 1427 1425 1422 1418 1415 1411 1407 1404 1400 1397 1394 1391 1388 1385 1382 1379 1376 1373 1370 1367 1364 1361 1358 1355 1353 1351 1349 1348 1345 1343